GW7215 Weather Reports


time (UTC)temp
F
wind
direction
speed
knots
gust
knots
rain 1hr
in
rain 24hr
in
rain mn
in
humidity
%
barometer
mb
20260506013048 79 360 0.0 4.3 0.00 0.00 0.00 82 1008.6
20260506011559 79 0 1.7 7.8 0.00 0.00 0.00 82 1008.1
20260506010051 80 134 3.5 10.4 0.00 0.00 0.00 81 1007.6
20260506004600 80 138 8.7 12.2 0.00 0.00 0.00 80 1007.6
20260506003047 81 128 6.1 11.3 0.00 0.00 0.00 79 1007.6
20260506001547 82 123 8.7 15.6 0.00 0.00 0.00 77 1007.5
20260506000047 83 153 7.8 12.2 0.00 0.00 0.00 78 1007.4
20260505234606 83 137 6.1 12.2 0.00 0.00 0.00 77 1007.5
20260505233044 83 147 7.0 12.2 0.00 0.00 0.00 75 1007.3
20260505231543 84 169 8.7 13.0 0.00 0.00 0.00 73 1007.4
20260505230042 84 163 7.0 15.6 0.00 0.00 0.00 75 1007.3
20260505224540 84 149 7.8 12.2 0.00 0.00 0.00 75 1007.1
20260505223037 84 168 8.7 14.8 0.00 0.00 0.00 74 1007.0
20260505221537 85 129 9.6 14.8 0.00 0.00 0.00 73 1007.0
20260505220100 87 159 8.7 13.9 0.00 0.00 0.00 71 1007.0
20260505214541 88 176 6.1 13.9 0.00 0.00 0.00 69 1006.8
20260505213037 88 142 7.0 14.8 0.00 0.00 0.00 66 1006.9
20260505211545 88 192 7.8 14.8 0.00 0.00 0.00 66 1007.0
20260505210037 87 204 7.0 13.9 0.00 0.00 0.00 65 1007.5
20260505204537 87 169 9.6 14.8 0.00 0.00 0.00 65 1007.5
20260505203044 87 184 7.8 13.9 0.00 0.00 0.00 66 1007.7
20260505201542 86 181 8.7 16.5 0.00 0.00 0.00 68 1007.8
20260505200040 86 186 8.7 16.5 0.00 0.00 0.00 68 1007.8
20260505194542 86 178 7.8 13.9 0.00 0.00 0.00 70 1008.0
20260505193044 85 166 8.7 15.6 0.00 0.00 0.00 70 1008.0
20260505191554 85 192 8.7 13.9 0.00 0.00 0.00 70 1008.1
20260505190043 84 212 10.4 16.5 0.00 0.00 0.00 71 1008.3
20260505184543 84 196 9.6 17.4 0.00 0.00 0.00 72 1008.4
20260505183037 83 180 7.8 19.1 0.00 0.00 0.00 73 1008.6
20260505181537 82 202 9.6 19.1 0.00 0.00 0.00 74 1008.7
20260505180052 82 176 9.6 23.5 0.00 0.00 0.00 74 1008.8
20260505174605 80 174 12.2 21.7 0.00 0.00 0.00 76 1008.8
20260505173037 80 182 11.3 20.9 0.00 0.00 0.00 76 1008.5
20260505171537 80 181 13.0 21.7 0.00 0.00 0.00 77 1008.3
20260505170046 79 171 10.4 20.0 0.00 0.00 0.00 78 1008.6
20260505164540 79 146 10.4 17.4 0.00 0.00 0.00 79 1008.5
20260505163045 79 188 10.4 16.5 0.00 0.00 0.00 79 1008.7
20260505161548 78 186 9.6 17.4 0.00 0.00 0.00 80 1008.8
20260505153051 76 171 9.6 19.1 0.00 0.00 0.00 84 1008.7
20260505151550 75 186 12.2 17.4 0.00 0.00 0.00 84 1008.9
20260505124544 69 166 7.8 13.0 0.00 0.00 0.00 92 1008.0
20260505123102 69 163 7.8 13.9 0.00 0.00 0.00 92 1007.8
20260505121545 69 169 7.8 13.9 0.00 0.00 0.00 92 1007.7
20260505120048 69 168 7.8 13.9 0.00 0.00 0.00 92 1007.5
20260505114609 69 163 7.0 13.0 0.00 0.00 0.00 92 1007.5
20260505113044 69 156 8.7 14.8 0.00 0.00 0.00 92 1007.3
20260505111602 69 192 7.8 14.8 0.00 0.00 0.00 91 1007.3
20260505101540 69 169 10.4 16.5 0.00 0.00 0.00 90 1007.3
20260505100037 69 180 10.4 17.4 0.00 0.00 0.00 90 1007.3
20260505094539 70 170 9.6 19.1 0.00 0.00 0.00 89 1007.4
20260505093047 70 186 10.4 20.9 0.00 0.00 0.00 88 1007.6
20260505091543 70 157 11.3 19.1 0.00 0.00 0.00 88 1007.7
20260505090048 70 172 10.4 15.6 0.00 0.00 0.00 89 1007.8
20260505084538 70 177 9.6 15.6 0.00 0.00 0.00 90 1007.7
20260505083046 69 141 8.7 20.0 0.00 0.00 0.00 90 1007.6
20260505081546 69 157 7.0 16.5 0.00 0.00 0.00 90 1007.9
20260505080040 69 157 9.6 18.2 0.00 0.00 0.00 89 1008.0
20260505074545 69 146 9.6 15.6 0.00 0.00 0.00 89 1008.3
20260505073037 70 161 9.6 18.2 0.00 0.00 0.00 88 1008.6
20260505071540 70 163 7.8 16.5 0.00 0.00 0.00 88 1008.9
20260505070045 70 165 7.8 16.5 0.00 0.00 0.00 87 1009.2
20260505064552 70 148 7.8 17.4 0.00 0.00 0.00 86 1009.2
20260505063038 71 168 8.7 16.5 0.00 0.00 0.00 86 1009.4
20260505061544 71 167 7.8 17.4 0.00 0.00 0.00 85 1009.5
20260505060044 71 157 8.7 16.5 0.00 0.00 0.00 84 1009.4
20260505054551 71 155 10.4 18.2 0.00 0.00 0.00 83 1009.3
20260505053038 71 165 8.7 14.8 0.00 0.00 0.00 83 1009.4
20260505051537 72 166 9.6 13.9 0.00 0.00 0.00 82 1009.7
20260505041548 73 155 8.7 15.6 0.00 0.00 0.00 78 1009.8
20260505040048 73 160 8.7 14.8 0.00 0.00 0.00 78 1009.9
20260505034545 73 155 7.0 13.9 0.00 0.00 0.00 78 1009.9
20260505033042 74 162 9.6 15.6 0.00 0.00 0.00 77 1009.6
20260505031541 73 152 7.0 16.5 0.00 0.00 0.00 78 1009.7
20260505030045 73 171 7.8 13.9 0.00 0.00 0.00 78 1009.8
20260505024544 73 144 7.8 13.0 0.00 0.00 0.00 78 1009.5
20260505023044 73 137 7.0 11.3 0.00 0.00 0.00 78 1009.7
20260505021547 73 140 7.0 12.2 0.00 0.00 0.00 78 1009.6
20260505020041 73 174 7.0 12.2 0.00 0.00 0.00 78 1009.4
20260505014542 73 176 7.0 12.2 0.00 0.00 0.00 78 1009.6